When you browse on this site, cookies collect data to enhance your experience and personalize the content and advertising you see.
Visit our Privacy Policy to learn more. By continuing to use the site, you agree to this use of cookies and data.
  • în România
  • Lista ţărilor
  • Pe 7 zile
  • Temperatura apei
  • Hartă satelitară
  • Meteo pe hartă
  • Widget-uri
  • user-avatar
    Intrare

    Meteo pe oră la San Fernando de Apure

    Astăzi, 22 Ianuarie, Marţi

    Timp Temperatura Precipitaţii Vânt Presiune Umiditate
    00:00 +30°C° 0 mm 2 m/s 755 mmHg 51%
    01:00 +29°C° 0 mm 3 m/s 755 mmHg 54%
    02:00 +29°C° 0 mm 3 m/s 755 mmHg 57%
    03:00 +28°C° 0 mm 3 m/s 755 mmHg 60%
    04:00 +28°C° 0 mm 3 m/s 755 mmHg 63%
    05:00 +27°C° 0 mm 3 m/s 755 mmHg 66%
    06:00 +28°C° 0 mm 4 m/s 756 mmHg 66%
    07:00 +28°C° 0 mm 4 m/s 756 mmHg 65%
    08:00 +29°C° 0 mm 5 m/s 756 mmHg 63%
    09:00 +30°C° 0 mm 5 m/s 756 mmHg 57%
    10:00 +33°C° 0 mm 5 m/s 756 mmHg 51%
    11:00 +35°C° 0 mm 5 m/s 756 mmHg 45%
    12:00 +36°C° 0 mm 5 m/s 756 mmHg 41%
    13:00 +37°C° 0 mm 4 m/s 755 mmHg 36%
    14:00 +38°C° 0 mm 4 m/s 754 mmHg 32%
    15:00 +38°C° 0 mm 4 m/s 753 mmHg 31%
    16:00 +38°C° 0 mm 4 m/s 753 mmHg 30%
    17:00 +38°C° 0 mm 4 m/s 752 mmHg 29%
    18:00 +36°C° 0 mm 3 m/s 752 mmHg 33%
    19:00 +35°C° 0 mm 3 m/s 753 mmHg 36%
    20:00 +32°C° 0 mm 2 m/s 753 mmHg 39%
    21:00 +31°C° 0 mm 2 m/s 753 mmHg 40%
    22:00 +31°C° 0 mm 3 m/s 754 mmHg 42%
    23:00 +32°C° 0 mm 4 m/s 755 mmHg 43%

    Mâine, 23 Ianuarie, Miercuri

    Timp Temperatura Precipitaţii Vânt Presiune Umiditate
    00:00 +30°C° 0 mm 4 m/s 755 mmHg 50%
    01:00 +29°C° 0 mm 4 m/s 755 mmHg 56%
    02:00 +28°C° 0 mm 4 m/s 755 mmHg 62%
    03:00 +28°C° 0 mm 4 m/s 755 mmHg 64%
    04:00 +28°C° 0 mm 3 m/s 755 mmHg 66%
    05:00 +27°C° 0 mm 3 m/s 755 mmHg 67%
    06:00 +28°C° 0 mm 4 m/s 755 mmHg 66%
    07:00 +28°C° 0 mm 4 m/s 756 mmHg 65%
    08:00 +28°C° 0 mm 5 m/s 756 mmHg 64%
    09:00 +30°C° 0 mm 5 m/s 756 mmHg 57%
    10:00 +33°C° 0 mm 5 m/s 757 mmHg 50%
    11:00 +35°C° 0 mm 5 m/s 757 mmHg 43%
    12:00 +36°C° 0 mm 5 m/s 756 mmHg 40%
    13:00 +37°C° 0 mm 5 m/s 755 mmHg 37%
    14:00 +39°C° 0 mm 5 m/s 754 mmHg 33%
    15:00 +39°C° 0 mm 5 m/s 753 mmHg 33%
    16:00 +39°C° 0 mm 5 m/s 752 mmHg 33%
    17:00 +37°C° 0 mm 5 m/s 752 mmHg 32%
    18:00 +36°C° 0 mm 4 m/s 752 mmHg 36%
    19:00 +34°C° 0 mm 3 m/s 752 mmHg 39%
    20:00 +32°C° 0 mm 2 m/s 753 mmHg 42%
    21:00 +31°C° 0 mm 3 m/s 753 mmHg 43%
    22:00 +31°C° 0 mm 3 m/s 754 mmHg 44%
    23:00 +31°C° 0 mm 3 m/s 755 mmHg 45%

    Poimâine, 24 Ianuarie, Joi

    Timp Temperatura Precipitaţii Vânt Presiune Umiditate
    00:00 +30°C° 0 mm 3 m/s 754 mmHg 50%
    01:00 +29°C° 0 mm 3 m/s 754 mmHg 55%
    02:00 +28°C° 0 mm 4 m/s 754 mmHg 60%
    03:00 +28°C° 0 mm 3 m/s 754 mmHg 62%
    04:00 +28°C° 0 mm 3 m/s 754 mmHg 64%
    05:00 +27°C° 0 mm 3 m/s 754 mmHg 65%
    06:00 +27°C° 0 mm 4 m/s 754 mmHg 65%
    07:00 +28°C° 0 mm 4 m/s 755 mmHg 64%
    08:00 +28°C° 0 mm 5 m/s 755 mmHg 63%
    09:00 +29°C° 0 mm 5 m/s 756 mmHg 57%
    10:00 +32°C° 0 mm 5 m/s 756 mmHg 52%
    11:00 +34°C° 0 mm 5 m/s 756 mmHg 46%
    12:00 +35°C° 0 mm 5 m/s 755 mmHg 42%
    13:00 +37°C° 0 mm 5 m/s 754 mmHg 38%
    14:00 +38°C° 0 mm 4 m/s 753 mmHg 35%
    15:00 +38°C° 0 mm 4 m/s 752 mmHg 34%
    16:00 +38°C° 0 mm 4 m/s 751 mmHg 33%
    17:00 +38°C° 0 mm 4 m/s 751 mmHg 33%
    18:00 +36°C° 0 mm 3 m/s 751 mmHg 36%
    19:00 +34°C° 0 mm 3 m/s 752 mmHg 39%
    20:00 +32°C° 0 mm 2 m/s 752 mmHg 42%
    21:00 +31°C° 0 mm 2 m/s 753 mmHg 43%
    22:00 +31°C° 0 mm 3 m/s 754 mmHg 44%
    23:00 +31°C° 0 mm 3 m/s 754 mmHg 45%

    25 Ianuarie, Vineri

    Timp Temperatura Precipitaţii Vânt Presiune Umiditate
    00:00 +30°C° 0 mm 3 m/s 754 mmHg 47%
    01:00 +30°C° 0 mm 3 m/s 754 mmHg 50%
    02:00 +29°C° 0 mm 3 m/s 754 mmHg 52%
    03:00 +29°C° 0 mm 3 m/s 754 mmHg 54%
    04:00 +28°C° 0 mm 3 m/s 754 mmHg 57%
    05:00 +28°C° 0 mm 3 m/s 754 mmHg 59%
    06:00 +28°C° 0 mm 4 m/s 754 mmHg 59%
    07:00 +28°C° 0 mm 5 m/s 755 mmHg 59%
    08:00 +28°C° 0 mm 5 m/s 756 mmHg 58%
    09:00 +30°C° 0 mm 5 m/s 756 mmHg 52%
    10:00 +33°C° 0 mm 5 m/s 756 mmHg 46%
    11:00 +34°C° 0 mm 5 m/s 756 mmHg 40%
    12:00 +36°C° 0 mm 5 m/s 755 mmHg 37%
    13:00 +37°C° 0 mm 5 m/s 754 mmHg 33%
    14:00 +38°C° 0 mm 4 m/s 752 mmHg 30%
    15:00 +38°C° 0 mm 4 m/s 752 mmHg 29%
    16:00 +38°C° 0 mm 4 m/s 751 mmHg 28%
    17:00 +38°C° 0 mm 4 m/s 750 mmHg 27%
    18:00 +36°C° 0 mm 3 m/s 750 mmHg 29%
    19:00 +34°C° 0 mm 2 m/s 751 mmHg 32%
    20:00 +31°C° 0 mm 2 m/s 751 mmHg 34%
    21:00 +30°C° 0 mm 2 m/s 752 mmHg 36%
    22:00 +30°C° 0 mm 2 m/s 752 mmHg 37%
    23:00 +30°C° 0 mm 2 m/s 753 mmHg 39%

    26 Ianuarie, Sâmbătă

    Timp Temperatura Precipitaţii Vânt Presiune Umiditate
    00:00 +29°C° 0 mm 3 m/s 753 mmHg 44%
    01:00 +29°C° 0 mm 3 m/s 753 mmHg 48%
    02:00 +29°C° 0 mm 4 m/s 753 mmHg 53%
    03:00 +28°C° 0 mm 4 m/s 753 mmHg 57%
    04:00 +28°C° 0 mm 3 m/s 753 mmHg 60%
    05:00 +27°C° 0 mm 3 m/s 753 mmHg 63%
    06:00 +28°C° 0 mm 4 m/s 754 mmHg 62%
    07:00 +28°C° 0 mm 4 m/s 754 mmHg 60%
    08:00 +28°C° 0 mm 5 m/s 755 mmHg 58%
    09:00 +30°C° 0 mm 5 m/s 755 mmHg 52%
    10:00 +33°C° 0 mm 5 m/s 755 mmHg 46%
    11:00 +35°C° 0 mm 5 m/s 755 mmHg 40%
    12:00 +36°C° 0 mm 5 m/s 754 mmHg 37%
    13:00 +37°C° 0 mm 4 m/s 753 mmHg 34%
    14:00 +38°C° 0 mm 4 m/s 752 mmHg 32%
    15:00 +38°C° 0 mm 4 m/s 751 mmHg 31%
    16:00 +38°C° 0 mm 4 m/s 750 mmHg 30%
    17:00 +38°C° 0 mm 3 m/s 749 mmHg 29%
    18:00 +36°C° 0 mm 3 m/s 750 mmHg 32%
    19:00 +34°C° 0 mm 2 m/s 750 mmHg 35%
    20:00 +31°C° 0 mm 1 m/s 751 mmHg 39%
    21:00 +31°C° 0 mm 2 m/s 751 mmHg 39%
    22:00 +30°C° 0 mm 2 m/s 752 mmHg 40%
    23:00 +30°C° 0 mm 2 m/s 752 mmHg 41%

    27 Ianuarie, Duminică

    Timp Temperatura Precipitaţii Vânt Presiune Umiditate
    00:00 +29°C° 0 mm 2 m/s 752 mmHg 47%
    01:00 +29°C° 0 mm 3 m/s 752 mmHg 53%
    02:00 +28°C° 0 mm 3 m/s 752 mmHg 60%
    03:00 +28°C° 0 mm 3 m/s 752 mmHg 62%
    04:00 +28°C° 0 mm 3 m/s 752 mmHg 64%
    05:00 +27°C° 0 mm 3 m/s 752 mmHg 67%
    06:00 +27°C° 0 mm 4 m/s 753 mmHg 65%
    07:00 +28°C° 0 mm 4 m/s 753 mmHg 64%
    08:00 +28°C° 0 mm 4 m/s 754 mmHg 62%
    09:00 +30°C° 0 mm 5 m/s 754 mmHg 56%
    10:00 +32°C° 0 mm 5 m/s 754 mmHg 50%
    11:00 +34°C° 0 mm 5 m/s 754 mmHg 44%
    12:00 +36°C° 0 mm 4 m/s 753 mmHg 41%
    13:00 +37°C° 0 mm 4 m/s 752 mmHg 37%
    14:00 +38°C° 0 mm 4 m/s 751 mmHg 33%
    15:00 +38°C° 0 mm 4 m/s 750 mmHg 32%
    16:00 +38°C° 0 mm 4 m/s 750 mmHg 32%
    17:00 +38°C° 0 mm 4 m/s 749 mmHg 31%
    18:00 +36°C° 0 mm 3 m/s 749 mmHg 34%
    19:00 +34°C° 0 mm 2 m/s 750 mmHg 38%
    20:00 +32°C° 0 mm 2 m/s 750 mmHg 41%
    21:00 +31°C° 0 mm 2 m/s 751 mmHg 42%
    22:00 +31°C° 0 mm 2 m/s 751 mmHg 44%
    23:00 +30°C° 0 mm 2 m/s 752 mmHg 45%
    Arată mai mult